Location: Newark
(45.9456°N, 15.4064°E)
Time: 15:22:36
(UTC+00:00)

SR - Pass Details

Date: 02 February 2020
Orbit: 575 x 880 km, 66.7° (Epoch: 23 February)

Event Time Altitude Azimuth Distance (km) Brightness Sun altitude
Rises 22:34:31 0° 294° (WNW) 3,482 - -59.8°
Reaches altitude 10° 22:39:45 10° 333° (NNW) 2,525 - -60.0°
Maximum altitude 22:40:52 11° 344° (NNW) 2,480 - -60.1°
Drops below altitude 10° 22:41:59 10° 355° (N) 2,508 - -60.1°
Sets 22:47:06 0° 34° (NE) 3,383 - -60.3°
